Regional Weather Roundup
Issued by NWS

Home | Current Version | Previous Version | Text Only | Print | Product List | Glossary Off
Versions: 1 2 3 4 5 6 7 8 9 10 11 12 13 14 15 16 17 18 19 20 21 22 23 24 25 26 27 28 29 30 31 32 33 34 35 36 37 38 39 40 41 42 43 44 45 46 47 48 49 50

000
ASUS43 KOAX 140802
RWRNE

WEATHER ROUNDUP FOR NEBRASKA
NATIONAL WEATHER SERVICE OMAHA NE
300 AM CDT MON JUL 14 2014

NOTES: SATELLITE DATA IS BEING USED TO AUGMENT CLOUD COVER ABOVE
       12000 FEET.
       "FAIR" INDICATES FEW OR NO CLOUDS BELOW 12,000 FEET WITH NO
       SIGNIFICANT WEATHER AND/OR OBSTRUCTIONS TO VISIBILITY.

  * THESE STATIONS DO NOT REPORT WEATHER SUCH AS RAIN...SNOW OR FOG.

NEZ001>004-019>022-054>056-140900-
NEBRASKA PANHANDLE

CITY           SKY/WX    TMP DP  RH WIND       PRES   REMARKS
SCOTTSBLUFF    MOCLDY    68  58  70 S3        30.19R
ALLIANCE       PTCLDY    60  56  86 N6        30.18S
CHADRON        PTCLDY    58  55  90 CALM      30.19S
KIMBALL        PTCLDY    62  55  77 SW9       30.22S
SIDNEY         CLEAR     62  59  90 W7        30.21S
$$

NEZ057>060-069>072-079>082-140900-
SOUTHWEST NEBRASKA

CITY           SKY/WX    TMP DP  RH WIND       PRES   REMARKS
NORTH PLATTE   PTCLDY    65  62  90 W7        30.09S
IMPERIAL       CLEAR     63  59  87 W12       30.12F
LEXINGTON      CLEAR     65  62  90 W3        30.05F
MCCOOK         CLEAR     64  61  90 W7        30.08F
OGALLALA       CLEAR     59  58  96 W3        30.13S
$$

NEZ005>010-023>029-035>040-094-140900-
NORTH CENTRAL NEBRASKA

CITY           SKY/WX    TMP DP  RH WIND       PRES   REMARKS
VALENTINE      MOCLDY    63  58  83 SW3       30.13S
AINSWORTH      CLOUDY    65  55  72 CALM      30.12F
BROKEN BOW     TSTM      65  61  87 NE9       30.08S
O`NEILL        MOCLDY    62  58  86 CALM      30.09F
ORD            LGT RAIN  64  62  93 CALM      30.06F
THEDFORD       PTCLDY    63  60  88 NE5       30.13R
$$

NEZ041-046>049-061>064-073>077-083>087-140900-
SOUTH CENTRAL NEBRASKA

CITY           SKY/WX    TMP DP  RH WIND       PRES   REMARKS
GRAND ISLAND   TSTM      69  66  90 W16G24    30.08R FOG
AURORA         CLOUDY    71  68  92 N10G20    30.01F
HASTINGS       MOCLDY    70  61  73 W6        30.02S
HEBRON         CLEAR     69  65  89 CALM      30.00S
HOLDREGE       CLEAR     65  62  89 NW3       30.05R
KEARNEY *      MOCLDY    66  61  82 N6        30.05R
YORK           MOCLDY    68  68 100 N13       30.03R
$$

NEZ011>018-030>034-042>045-140900-
NORTHEAST NEBRASKA

CITY           SKY/WX    TMP DP  RH WIND       PRES   REMARKS
NORFOLK        RAIN      64  56  75 NW14      30.07R
ALBION         RAIN      66  62  86 N3        30.08R
BLAIR          MOCLDY    70  53  55 N8        30.00R
FREMONT        PTCLDY    68  63  82 CALM      30.01S
TEKAMAH        CLOUDY    70  61  73 N3        29.99R
WAYNE          MOCLDY    65  63  91 CALM      30.03S
$$

NEZ050>053-065>068-078-088>093-140900-
SOUTHEAST NEBRASKA

CITY           SKY/WX    TMP DP  RH WIND       PRES   REMARKS
LINCOLN        CLOUDY    71  65  81 N16G22    30.01R
OMAHA EPPLEY   MOCLDY    70  65  84 N7        29.98R
BEATRICE       CLEAR     66  65  99 CALM      29.99R
FALLS CITY     CLEAR     67  67 100 CALM      29.95S
NEBRASKA CITY  PTCLDY    69  69 100 W6        29.97R
PLATTSMOUTH    CLEAR     69  65  89 NW7       29.99R
$$

NEZ044-045-051>053-067-140900-
OMAHA AREA

CITY           SKY/WX    TMP DP  RH WIND       PRES   REMARKS
OMAHA EPPLEY   MOCLDY    70  65  84 N7        29.98R
BLAIR          MOCLDY    70  53  55 N8        30.00R
FREMONT        PTCLDY    68  63  82 CALM      30.01S
MILLARD        PTCLDY    73  64  73 NW6       29.99R
OFFUTT AFB     CLEAR     70  70 100 NW6       29.97R
PLATTSMOUTH    CLEAR     69  65  89 NW7       29.99R
WAHOO          FAIR      69  64  83 N5        30.00S
$$



USA.gov is the U.S. government's official web portal to all federal, state and local government web resources and services.